Location: Gleizolles
(44.4833°N, 6.7667°E)
Time: 13:57:40
(UTC+00:00)

A-11 Canister half - Pass Details

Date: 13 June 2024
Orbit: 1515 x 1684 km, 47.2° (Epoch: 24 July)

Event Time Altitude Azimuth Distance (km) Brightness Sun altitude
Rises 20:23:36 0° 244° (WSW) 4,909 11.9 -9.6°
Reaches altitude 10° 20:26:47 10° 244° (WSW) 3,908 11.3 -10.0°
Maximum altitude 20:36:49 84° 157° (SSE) 1,634 9.1 -11.2°
Drops below altitude 10° 20:46:30 10° 71° (ENE) 3,785 10.9 -12.3°
Sets 20:49:32 0° 71° (ENE) 4,749 11.4 -12.6°
